Weather History for San Antonio, TX

Change the Weather History Date:

Thursday, April 10, 2014

  Actual Average Record
Temperature  
Mean Temperature 73 °F 68 °F  
Max Temperature 90 °F 79 °F 95 °F (1963)
Min Temperature 56 °F 57 °F 37 °F (1973)
Degree Days  
Heating Degree Days 0 2  
Month to date heating degree days 15 22  
Since 1 July heating degree days 1537 1477  
Cooling Degree Days 8 5  
Month to date cooling degree days 55 41  
Year to date cooling degree days 181 132  
Growing Degree Days 22 (Base 50)    
Moisture  
Dew Point 55 °F    
Average Humidity 60    
Maximum Humidity 97    
Minimum Humidity 23    
Precipitation  
Precipitation 0.00 in 0.06 in 1.44 in (1978)
Month to date precipitation 0.43 0.59  
Year to date precipitation 2.14 6.45  
Snow  
Snow 0.00 in - - ()
Month to date snowfall 0.0  
Since 1 July snowfall 0.4  
Snow Depth 0.00 in    
Sea Level Pressure  
Sea Level Pressure 30.00 in    
Wind  
Wind Speed 14 mph (SSE)    
Max Wind Speed 25 mph    
Max Gust Speed 34 mph    
Visibility 10 miles    
Events      
T = Trace of Precipitation, MM = Missing Value Source: NWS Daily Summary

Daily Weather History Graph

Daily Weather History Graph

Search for Another Location

Airport:

Trip Planner

Search our weather history database for the weather conditions in past years. The results will help you decide how hot, cold, wet, or windy it might be!

Date:

Astronomy

Apr. 10, 2014 Rise Set
Actual Time 7:12 AM CDT 7:57 PM CDT
Civil Twilight 6:48 AM CDT 8:21 PM CDT
Nautical Twilight 6:20 AM CDT 8:50 PM CDT
Astronomical Twilight 5:51 AM CDT 9:19 PM CDT
Moon 4:01 PM CDT (4/10) 4:16 AM CDT (4/10)
Length of Visible Light 13h 33m
Length of Day
12h 44m
Waxing Gibbous, 80% of the Moon is Illuminated
Apr 10
Waxing Gibbous
Apr 15
Full
Apr 22
Last Quarter
Apr 29
New
May 6
First Quarter

Hourly Weather History & Observations

Time (CDT) Temp. Heat Index Dew Point Humidity Pressure Visibility Wind Dir Wind Speed Gust Speed Precip Events Conditions
12:51 AM 63.0 °F - 55.0 °F 75% 30.09 in 10.0 mi SSE 8.1 mph - N/A   Partly Cloudy
1:51 AM 61.0 °F - 55.0 °F 81% 30.08 in 10.0 mi SSE 6.9 mph - N/A   Partly Cloudy
2:51 AM 59.0 °F - 55.0 °F 87% 30.06 in 10.0 mi SSE 5.8 mph - N/A   Partly Cloudy
3:51 AM 57.9 °F - 55.0 °F 90% 30.05 in 10.0 mi SSE 5.8 mph - N/A   Partly Cloudy
4:51 AM 59.0 °F - 55.9 °F 90% 30.04 in 10.0 mi South 6.9 mph - N/A   Partly Cloudy
5:51 AM 57.9 °F - 55.9 °F 93% 30.04 in 10.0 mi SSE 4.6 mph - N/A   Partly Cloudy
6:51 AM 57.9 °F - 55.9 °F 93% 30.04 in 10.0 mi SSE 8.1 mph - N/A   Scattered Clouds
7:03 AM 57.0 °F - 55.9 °F 96% 30.08 in 9.0 mi SE 4.6 mph - N/A   Mostly Cloudy
7:51 AM 61.0 °F - 59.0 °F 93% 30.04 in 7.0 mi South 8.1 mph - N/A   Overcast
8:51 AM 63.0 °F - 60.1 °F 90% 30.06 in 8.0 mi South 11.5 mph - N/A   Overcast
9:38 AM 64.0 °F - 60.1 °F 87% 30.11 in 10.0 mi SSW 13.8 mph - N/A   Mostly Cloudy
9:51 AM 64.9 °F - 60.1 °F 84% 30.06 in 10.0 mi South 12.7 mph - N/A   Mostly Cloudy
10:51 AM 73.0 °F - 57.0 °F 57% 30.06 in 10.0 mi SSW 15.0 mph 23.0 mph N/A   Partly Cloudy
11:51 AM 78.1 °F - 57.9 °F 50% 30.05 in 10.0 mi South 12.7 mph - N/A   Partly Cloudy
12:51 PM 82.9 °F 81.9 °F 54.0 °F 37% 30.01 in 10.0 mi South 18.4 mph 25.3 mph N/A   Partly Cloudy
1:51 PM 84.9 °F - 51.1 °F 31% 29.97 in 10.0 mi South 18.4 mph 26.5 mph N/A   Clear
2:51 PM 87.1 °F - 50.0 °F 28% 29.94 in 10.0 mi SSE 13.8 mph 27.6 mph N/A   Partly Cloudy
3:51 PM 89.1 °F - 46.9 °F 23% 29.91 in 10.0 mi SSE 21.9 mph 28.8 mph N/A   Scattered Clouds
4:51 PM 89.1 °F - 46.9 °F 23% 29.89 in 10.0 mi SSE 18.4 mph 25.3 mph N/A   Mostly Cloudy
5:51 PM 88.0 °F - 46.9 °F 24% 29.88 in 10.0 mi SSE 19.6 mph - N/A   Mostly Cloudy
6:51 PM 86.0 °F - 45.0 °F 24% 29.88 in 10.0 mi South 16.1 mph - N/A   Mostly Cloudy
7:51 PM 79.0 °F - 59.0 °F 50% 29.89 in 10.0 mi SE 23.0 mph - N/A   Mostly Cloudy
8:51 PM 73.9 °F - 59.0 °F 59% 29.92 in 10.0 mi SE 16.1 mph 28.8 mph N/A   Mostly Cloudy
9:51 PM 71.6 °F - 59.0 °F 64% 29.99 in 10.0 mi SSE 17.3 mph 26.5 mph N/A   Mostly Cloudy
10:51 PM 69.1 °F - 59.0 °F 70% 29.97 in 10.0 mi SSE 19.6 mph 25.3 mph N/A   Mostly Cloudy
11:51 PM 68.0 °F - 59.0 °F 73% 29.97 in 10.0 mi SSE 13.8 mph - N/A   Scattered Clouds